﻿測定場所 (Monitoring sites),日付 (Measurement date),時間 (Measurement time),線量率 最大値 (max) μGy/h,線量率 最小値 (min) μGy/h,線量率 平均値 (average) μGy/h,
江戸川 (Edogawa),2012-07-08,23:01～24:00,0.124,0.107,0.115,
江戸川 (Edogawa),2012-07-08,22:01～23:00,0.122,0.107,0.115,
江戸川 (Edogawa),2012-07-08,21:01～22:00,0.120,0.109,0.115,
江戸川 (Edogawa),2012-07-08,20:01～21:00,0.122,0.110,0.116,
江戸川 (Edogawa),2012-07-08,19:01～20:00,0.121,0.110,0.116,
江戸川 (Edogawa),2012-07-08,18:01～19:00,0.122,0.108,0.115,
江戸川 (Edogawa),2012-07-08,17:01～18:00,0.121,0.108,0.115,
江戸川 (Edogawa),2012-07-08,16:01～17:00,0.122,0.109,0.115,
江戸川 (Edogawa),2012-07-08,15:01～16:00,0.120,0.107,0.115,
江戸川 (Edogawa),2012-07-08,14:01～15:00,0.124,0.106,0.114,
江戸川 (Edogawa),2012-07-08,13:01～14:00,0.121,0.110,0.115,
江戸川 (Edogawa),2012-07-08,12:01～13:00,0.122,0.107,0.115,
江戸川 (Edogawa),2012-07-08,11:01～12:00,0.123,0.109,0.116,
江戸川 (Edogawa),2012-07-08,10:01～11:00,0.121,0.110,0.116,
江戸川 (Edogawa),2012-07-08,09:01～10:00,0.123,0.110,0.117,
江戸川 (Edogawa),2012-07-08,08:01～09:00,0.127,0.112,0.120,
江戸川 (Edogawa),2012-07-08,07:01～08:00,0.132,0.114,0.124,
江戸川 (Edogawa),2012-07-08,06:01～07:00,0.134,0.119,0.126,
江戸川 (Edogawa),2012-07-08,05:01～06:00,0.132,0.118,0.125,
江戸川 (Edogawa),2012-07-08,04:01～05:00,0.126,0.114,0.121,
江戸川 (Edogawa),2012-07-08,03:01～04:00,0.123,0.109,0.117,
江戸川 (Edogawa),2012-07-08,02:01～03:00,0.126,0.110,0.116,
江戸川 (Edogawa),2012-07-08,01:01～02:00,0.123,0.109,0.116,
江戸川 (Edogawa),2012-07-08,00:01～01:00,0.123,0.109,0.116,
江戸川 (Edogawa),2012-07-07,23:01～24:00,0.121,0.109,0.116,
江戸川 (Edogawa),2012-07-07,22:01～23:00,0.126,0.113,0.119,
江戸川 (Edogawa),2012-07-07,21:01～22:00,0.131,0.118,0.125,
江戸川 (Edogawa),2012-07-07,20:01～21:00,0.133,0.115,0.124,
江戸川 (Edogawa),2012-07-07,19:01～20:00,0.127,0.112,0.118,
江戸川 (Edogawa),2012-07-07,18:01～19:00,0.126,0.112,0.118,
江戸川 (Edogawa),2012-07-07,17:01～18:00,0.122,0.111,0.117,
江戸川 (Edogawa),2012-07-07,16:01～17:00,0.124,0.114,0.119,
江戸川 (Edogawa),2012-07-07,15:01～16:00,0.130,0.114,0.122,
江戸川 (Edogawa),2012-07-07,14:01～15:00,0.129,0.110,0.117,
江戸川 (Edogawa),2012-07-07,13:01～14:00,0.125,0.110,0.117,
江戸川 (Edogawa),2012-07-07,12:01～13:00,0.123,0.111,0.116,
江戸川 (Edogawa),2012-07-07,11:01～12:00,0.123,0.109,0.115,
江戸川 (Edogawa),2012-07-07,10:01～11:00,0.122,0.107,0.115,
江戸川 (Edogawa),2012-07-07,09:01～10:00,0.120,0.110,0.116,
江戸川 (Edogawa),2012-07-07,08:01～09:00,0.125,0.108,0.117,
江戸川 (Edogawa),2012-07-07,07:01～08:00,0.128,0.111,0.118,
江戸川 (Edogawa),2012-07-07,06:01～07:00,0.126,0.111,0.118,
江戸川 (Edogawa),2012-07-07,05:01～06:00,0.129,0.114,0.122,
江戸川 (Edogawa),2012-07-07,04:01～05:00,0.127,0.110,0.118,
江戸川 (Edogawa),2012-07-07,03:01～04:00,0.123,0.109,0.116,
江戸川 (Edogawa),2012-07-07,02:01～03:00,0.132,0.114,0.123,
江戸川 (Edogawa),2012-07-07,01:01～02:00,0.138,0.125,0.132,
江戸川 (Edogawa),2012-07-07,00:01～01:00,0.137,0.123,0.129,
江戸川 (Edogawa),2012-07-06,23:01～24:00,0.138,0.117,0.127,
江戸川 (Edogawa),2012-07-06,22:01～23:00,0.125,0.113,0.120,
江戸川 (Edogawa),2012-07-06,21:01～22:00,0.124,0.112,0.118,
江戸川 (Edogawa),2012-07-06,20:01～21:00,0.125,0.109,0.119,
江戸川 (Edogawa),2012-07-06,19:01～20:00,0.126,0.114,0.120,
江戸川 (Edogawa),2012-07-06,18:01～19:00,0.126,0.111,0.119,
江戸川 (Edogawa),2012-07-06,17:01～18:00,0.124,0.108,0.117,
江戸川 (Edogawa),2012-07-06,16:01～17:00,0.125,0.111,0.119,
江戸川 (Edogawa),2012-07-06,15:01～16:00,0.125,0.113,0.119,
江戸川 (Edogawa),2012-07-06,14:01～15:00,0.125,0.108,0.117,
江戸川 (Edogawa),2012-07-06,13:01～14:00,0.124,0.109,0.117,
江戸川 (Edogawa),2012-07-06,12:01～13:00,0.124,0.110,0.117,
江戸川 (Edogawa),2012-07-06,11:01～12:00,0.124,0.111,0.117,
江戸川 (Edogawa),2012-07-06,10:01～11:00,0.124,0.109,0.117,
江戸川 (Edogawa),2012-07-06,09:01～10:00,0.123,0.111,0.117,
江戸川 (Edogawa),2012-07-06,08:01～09:00,0.125,0.109,0.118,
江戸川 (Edogawa),2012-07-06,07:01～08:00,0.124,0.111,0.118,
江戸川 (Edogawa),2012-07-06,06:01～07:00,0.129,0.115,0.121,
江戸川 (Edogawa),2012-07-06,05:01～06:00,0.133,0.118,0.124,
江戸川 (Edogawa),2012-07-06,04:01～05:00,0.140,0.125,0.132,
江戸川 (Edogawa),2012-07-06,03:01～04:00,0.139,0.117,0.127,
江戸川 (Edogawa),2012-07-06,02:01～03:00,0.130,0.113,0.123,
江戸川 (Edogawa),2012-07-06,01:01～02:00,0.127,0.112,0.118,
江戸川 (Edogawa),2012-07-06,00:01～01:00,0.128,0.113,0.119,
江戸川 (Edogawa),2012-07-05,23:01～24:00,0.123,0.112,0.118,
江戸川 (Edogawa),2012-07-05,22:01～23:00,0.129,0.112,0.118,
江戸川 (Edogawa),2012-07-05,21:01～22:00,0.125,0.113,0.119,
江戸川 (Edogawa),2012-07-05,20:01～21:00,0.125,0.113,0.119,
江戸川 (Edogawa),2012-07-05,19:01～20:00,0.127,0.111,0.119,
江戸川 (Edogawa),2012-07-05,18:01～19:00,0.125,0.111,0.118,
江戸川 (Edogawa),2012-07-05,17:01～18:00,0.127,0.110,0.119,
江戸川 (Edogawa),2012-07-05,16:01～17:00,0.128,0.113,0.119,
江戸川 (Edogawa),2012-07-05,15:01～16:00,0.126,0.113,0.118,
江戸川 (Edogawa),2012-07-05,14:01～15:00,0.123,0.112,0.118,
江戸川 (Edogawa),2012-07-05,13:01～14:00,0.124,0.111,0.118,
江戸川 (Edogawa),2012-07-05,12:01～13:00,0.124,0.113,0.119,
江戸川 (Edogawa),2012-07-05,11:01～12:00,0.127,0.110,0.118,
江戸川 (Edogawa),2012-07-05,10:01～11:00,0.126,0.111,0.119,
江戸川 (Edogawa),2012-07-05,09:01～10:00,0.123,0.112,0.118,
江戸川 (Edogawa),2012-07-05,08:01～09:00,0.127,0.113,0.119,
江戸川 (Edogawa),2012-07-05,07:01～08:00,0.126,0.113,0.118,
江戸川 (Edogawa),2012-07-05,06:01～07:00,0.123,0.110,0.117,
江戸川 (Edogawa),2012-07-05,05:01～06:00,0.124,0.111,0.118,
江戸川 (Edogawa),2012-07-05,04:01～05:00,0.125,0.112,0.118,
江戸川 (Edogawa),2012-07-05,03:01～04:00,0.124,0.111,0.118,
江戸川 (Edogawa),2012-07-05,02:01～03:00,0.129,0.110,0.118,
江戸川 (Edogawa),2012-07-05,01:01～02:00,0.125,0.113,0.119,
江戸川 (Edogawa),2012-07-05,00:01～01:00,0.124,0.110,0.118,
江戸川 (Edogawa),2012-07-04,23:01～24:00,0.126,0.110,0.118,
江戸川 (Edogawa),2012-07-04,22:01～23:00,0.123,0.110,0.117,
江戸川 (Edogawa),2012-07-04,21:01～22:00,0.124,0.111,0.118,
江戸川 (Edogawa),2012-07-04,20:01～21:00,0.125,0.112,0.118,
江戸川 (Edogawa),2012-07-04,19:01～20:00,0.125,0.111,0.118,
江戸川 (Edogawa),2012-07-04,18:01～19:00,0.122,0.110,0.116,
江戸川 (Edogawa),2012-07-04,17:01～18:00,0.125,0.111,0.118,
江戸川 (Edogawa),2012-07-04,16:01～17:00,0.126,0.110,0.118,
江戸川 (Edogawa),2012-07-04,15:01～16:00,0.125,0.110,0.117,
江戸川 (Edogawa),2012-07-04,14:01～15:00,0.124,0.110,0.117,
江戸川 (Edogawa),2012-07-04,13:01～14:00,0.126,0.110,0.118,
江戸川 (Edogawa),2012-07-04,12:01～13:00,0.123,0.111,0.118,
江戸川 (Edogawa),2012-07-04,11:01～12:00,0.122,0.110,0.116,
江戸川 (Edogawa),2012-07-04,10:01～11:00,0.123,0.109,0.117,
江戸川 (Edogawa),2012-07-04,09:01～10:00,0.123,0.109,0.116,
江戸川 (Edogawa),2012-07-04,08:01～09:00,0.123,0.111,0.117,
江戸川 (Edogawa),2012-07-04,07:01～08:00,0.124,0.109,0.116,
江戸川 (Edogawa),2012-07-04,06:01～07:00,0.121,0.109,0.117,
江戸川 (Edogawa),2012-07-04,05:01～06:00,0.123,0.111,0.116,
江戸川 (Edogawa),2012-07-04,04:01～05:00,0.122,0.112,0.116,
江戸川 (Edogawa),2012-07-04,03:01～04:00,0.124,0.106,0.116,
江戸川 (Edogawa),2012-07-04,02:01～03:00,0.125,0.112,0.117,
江戸川 (Edogawa),2012-07-04,01:01～02:00,0.128,0.111,0.118,
江戸川 (Edogawa),2012-07-04,00:01～01:00,0.126,0.108,0.118,
江戸川 (Edogawa),2012-07-03,23:01～24:00,0.126,0.110,0.118,
江戸川 (Edogawa),2012-07-03,22:01～23:00,0.129,0.113,0.118,
江戸川 (Edogawa),2012-07-03,21:01～22:00,0.127,0.112,0.120,
江戸川 (Edogawa),2012-07-03,20:01～21:00,0.129,0.114,0.121,
江戸川 (Edogawa),2012-07-03,19:01～20:00,0.126,0.111,0.120,
江戸川 (Edogawa),2012-07-03,18:01～19:00,0.134,0.118,0.125,
江戸川 (Edogawa),2012-07-03,17:01～18:00,0.129,0.115,0.122,
江戸川 (Edogawa),2012-07-03,16:01～17:00,0.131,0.113,0.121,
江戸川 (Edogawa),2012-07-03,15:01～16:00,0.132,0.113,0.123,
江戸川 (Edogawa),2012-07-03,14:01～15:00,0.130,0.113,0.121,
江戸川 (Edogawa),2012-07-03,13:01～14:00,0.125,0.112,0.118,
江戸川 (Edogawa),2012-07-03,12:01～13:00,0.125,0.110,0.119,
江戸川 (Edogawa),2012-07-03,11:01～12:00,0.124,0.110,0.118,
江戸川 (Edogawa),2012-07-03,10:01～11:00,0.124,0.110,0.118,
江戸川 (Edogawa),2012-07-03,09:01～10:00,0.124,0.112,0.118,
江戸川 (Edogawa),2012-07-03,08:01～09:00,0.123,0.109,0.116,
江戸川 (Edogawa),2012-07-03,07:01～08:00,0.125,0.111,0.117,
江戸川 (Edogawa),2012-07-03,06:01～07:00,0.123,0.111,0.117,
江戸川 (Edogawa),2012-07-03,05:01～06:00,0.123,0.111,0.117,
江戸川 (Edogawa),2012-07-03,04:01～05:00,0.124,0.110,0.117,
江戸川 (Edogawa),2012-07-03,03:01～04:00,0.125,0.112,0.117,
江戸川 (Edogawa),2012-07-03,02:01～03:00,0.123,0.110,0.117,
江戸川 (Edogawa),2012-07-03,01:01～02:00,0.124,0.109,0.117,
江戸川 (Edogawa),2012-07-03,00:01～01:00,0.124,0.110,0.117,
江戸川 (Edogawa),2012-07-02,23:01～24:00,0.125,0.111,0.117,
江戸川 (Edogawa),2012-07-02,22:01～23:00,0.123,0.109,0.117,
江戸川 (Edogawa),2012-07-02,21:01～22:00,0.124,0.109,0.117,
江戸川 (Edogawa),2012-07-02,20:01～21:00,0.123,0.111,0.117,
江戸川 (Edogawa),2012-07-02,19:01～20:00,0.123,0.107,0.117,
江戸川 (Edogawa),2012-07-02,18:01～19:00,0.124,0.112,0.117,
江戸川 (Edogawa),2012-07-02,17:01～18:00,0.123,0.112,0.117,
江戸川 (Edogawa),2012-07-02,16:01～17:00,0.122,0.112,0.117,
江戸川 (Edogawa),2012-07-02,15:01～16:00,0.123,0.110,0.117,
江戸川 (Edogawa),2012-07-02,14:01～15:00,0.123,0.111,0.117,
江戸川 (Edogawa),2012-07-02,13:01～14:00,0.123,0.111,0.117,
江戸川 (Edogawa),2012-07-02,12:01～13:00,0.123,0.110,0.116,
江戸川 (Edogawa),2012-07-02,11:01～12:00,0.123,0.110,0.116,
江戸川 (Edogawa),2012-07-02,10:01～11:00,0.124,0.112,0.116,
江戸川 (Edogawa),2012-07-02,09:01～10:00,0.122,0.110,0.117,
江戸川 (Edogawa),2012-07-02,08:01～09:00,0.124,0.107,0.116,
江戸川 (Edogawa),2012-07-02,07:01～08:00,0.124,0.110,0.116,
江戸川 (Edogawa),2012-07-02,06:01～07:00,0.127,0.109,0.117,
江戸川 (Edogawa),2012-07-02,05:01～06:00,0.121,0.109,0.116,
江戸川 (Edogawa),2012-07-02,04:01～05:00,0.124,0.110,0.117,
江戸川 (Edogawa),2012-07-02,03:01～04:00,0.128,0.113,0.119,
江戸川 (Edogawa),2012-07-02,02:01～03:00,0.128,0.110,0.119,
江戸川 (Edogawa),2012-07-02,01:01～02:00,0.125,0.112,0.118,
江戸川 (Edogawa),2012-07-02,00:01～01:00,0.127,0.112,0.119,
